N7QNM-13 Weather Reports


Display with metric or nautical units.
time (UTC)temp
F
wind
direction
speed
MPH
gust
MPH
rain 1hr
in
rain 24hr
in
rain mn
in
humidity
%
barometer
mb
20260902120559 54 0.0 0.0 0.00 0.00 0.00 76 1008.5
20260902115600 55 234 1.0 2.0 0.00 0.00 0.00 75 1008.4
20260902114640 55 266 0.0 3.0 0.00 0.00 0.00 75 1008.4
20260902113558 55 225 0.0 2.0 0.00 0.00 0.00 73 1008.3
20260902112558 55 0.0 0.0 0.00 0.00 0.00 72 1008.3
20260902111600 55 236 1.0 3.0 0.00 0.00 0.00 72 1008.2
20260902110600 55 126 3.0 4.0 0.00 0.00 0.00 73 1008.2
20260902105558 56 111 1.0 3.0 0.00 0.00 0.00 72 1008.1
20260902104559 56 338 0.0 2.0 0.00 0.00 0.00 70 1008.0
20260902103559 57 0.0 0.0 0.00 0.00 0.00 67 1007.7
20260902102559 58 55 0.0 1.0 0.00 0.00 0.00 64 1007.6
20260902101559 59 113 0.0 2.0 0.00 0.00 0.00 62 1007.6
20260902100559 60 0.0 0.0 0.00 0.00 0.00 59 1007.6
20260902095601 62 234 0.0 2.0 0.00 0.00 0.00 55 1007.6
20260902094601 63 251 1.0 2.0 0.00 0.00 0.00 53 1007.6
20260902093601 64 265 3.0 3.0 0.00 0.00 0.00 51 1007.7
20260902092601 65 279 2.0 3.0 0.00 0.00 0.00 49 1007.6
20260902091600 64 1 2.0 3.0 0.00 0.00 0.00 50 1007.4
20260902090601 63 232 4.0 6.0 0.00 0.00 0.00 51 1007.5
20260902085600 62 253 4.0 8.0 0.00 0.00 0.00 54 1007.5
20260902084622 61 222 1.0 4.0 0.00 0.00 0.00 56 1007.6
20260902083621 62 0.0 0.0 0.00 0.00 0.00 54 1007.6
20260902082600 63 203 2.0 3.0 0.00 0.00 0.00 53 1007.6
20260902081602 64 217 3.0 4.0 0.00 0.00 0.00 53 1007.5
20260902080642 64 257 3.0 4.0 0.00 0.00 0.00 53 1007.6
20260902075601 65 237 3.0 4.0 0.00 0.00 0.00 51 1007.5
20260902074600 66 234 4.0 6.0 0.00 0.00 0.00 50 1007.7
20260902073601 66 251 4.0 6.0 0.00 0.00 0.00 50 1007.7
20260902072601 67 253 4.0 7.0 0.00 0.00 0.00 49 1007.7
20260902071601 67 235 6.0 9.0 0.00 0.00 0.00 47 1007.7
20260902070603 67 275 7.0 11.0 0.00 0.00 0.00 46 1007.8
20260902065643 67 244 7.0 11.0 0.00 0.00 0.00 45 1007.7
20260902064622 67 230 5.0 8.0 0.00 0.00 0.00 46 1007.5
20260902063603 67 245 4.0 7.0 0.00 0.00 0.00 46 1007.4
20260902062601 67 253 4.0 6.0 0.00 0.00 0.00 48 1007.2
20260902061602 68 269 4.0 5.0 0.00 0.00 0.00 47 1007.1
20260902060603 68 247 5.0 7.0 0.00 0.00 0.00 47 1007.0
20260902055602 68 249 4.0 6.0 0.00 0.00 0.00 47 1006.9
20260902054604 68 282 4.0 6.0 0.00 0.00 0.00 47 1007.0
20260902053604 68 211 4.0 5.0 0.00 0.00 0.00 47 1006.8
20260902052622 68 0.0 0.0 0.00 0.00 0.00 48 1006.8
20260902051604 68 256 3.0 6.0 0.00 0.00 0.00 47 1006.6
20260902050603 68 255 3.0 5.0 0.00 0.00 0.00 47 1006.4
20260902045603 68 234 1.0 4.0 0.00 0.00 0.00 46 1006.3
20260902044623 69 220 2.0 4.0 0.00 0.00 0.00 46 1006.2
20260902043604 70 0.0 0.0 0.00 0.00 0.00 45 1006.1
20260902042623 70 264 2.0 5.0 0.00 0.00 0.00 42 1006.1
20260902041605 69 232 4.0 5.0 0.00 0.00 0.00 41 1005.8
20260902040605 70 224 3.0 5.0 0.00 0.00 0.00 42 1005.7
20260902035604 70 227 3.0 5.0 0.00 0.00 0.00 40 1005.6
20260902034625 69 217 2.0 3.0 0.00 0.00 0.00 39 1005.3
20260902033604 69 213 3.0 5.0 0.00 0.00 0.00 41 1005.2
20260902032646 70 264 2.0 2.0 0.00 0.00 0.00 41 1004.9
20260902031604 71 270 0.0 2.0 0.00 0.00 0.00 39 1004.7
20260902030646 72 228 1.0 2.0 0.00 0.00 0.00 38 1004.7
20260902025604 74 244 1.0 3.0 0.00 0.00 0.00 37 1004.5
20260902024604 75 257 2.0 3.0 0.00 0.00 0.00 37 1004.4
20260902023606 76 267 2.0 6.0 0.00 0.00 0.00 36 1004.3
20260902022605 77 241 3.0 5.0 0.00 0.00 0.00 37 1004.2
20260902021604 78 255 2.0 5.0 0.00 0.00 0.00 37 1004.1
20260902020606 79 263 3.0 5.0 0.00 0.00 0.00 36 1004.1
20260902015605 80 256 4.0 6.0 0.00 0.00 0.00 36 1004.1
20260902014605 81 276 6.0 9.0 0.00 0.00 0.00 36 1004.0
20260902013625 82 279 5.0 7.0 0.00 0.00 0.00 38 1004.1
20260902012605 83 281 4.0 5.0 0.00 0.00 0.00 36 1003.8
20260902011626 84 231 2.0 3.0 0.00 0.00 0.00 35 1003.6
20260902010627 85 267 3.0 4.0 0.00 0.00 0.00 33 1003.6
20260902005605 86 271 4.0 5.0 0.00 0.00 0.00 32 1003.6
20260902004606 87 254 3.0 4.0 0.00 0.00 0.00 31 1003.5
20260902003607 87 244 7.0 10.0 0.00 0.00 0.00 26 1003.4
20260902002626 88 206 5.0 7.0 0.00 0.00 0.00 25 1003.5
20260902001626 89 211 6.0 9.0 0.00 0.00 0.00 24 1003.5
20260902000627 90 159 7.0 9.0 0.00 0.00 0.00 23 1003.5
20260901235608 90 164 10.0 13.0 0.00 0.00 0.00 23 1003.6
20260901234606 90 143 9.0 13.0 0.00 0.00 0.00 24 1003.7
20260901233608 91 169 8.0 11.0 0.00 0.00 0.00 24 1003.8
20260901232607 90 159 7.0 10.0 0.00 0.00 0.00 25 1003.8
20260901231606 90 147 9.0 12.0 0.00 0.00 0.00 27 1003.9
20260901230649 89 163 8.0 13.0 0.00 0.00 0.00 27 1004.0
20260901225607 90 135 8.0 10.0 0.00 0.00 0.00 29 1004.1
20260901224607 90 162 10.0 16.0 0.00 0.00 0.00 29 1004.2
20260901223607 89 162 9.0 13.0 0.00 0.00 0.00 29 1004.3
20260901222607 89 128 10.0 13.0 0.00 0.00 0.00 30 1004.5
20260901221607 89 140 9.0 15.0 0.00 0.00 0.00 32 1004.6
20260901220608 88 168 9.0 12.0 0.00 0.00 0.00 33 1004.7
20260901215609 88 164 9.0 13.0 0.00 0.00 0.00 33 1004.9
20260901214608 88 171 9.0 13.0 0.00 0.00 0.00 32 1005.0
20260901213608 88 131 9.0 12.0 0.00 0.00 0.00 31 1005.2
20260901212608 87 168 7.0 9.0 0.00 0.00 0.00 32 1005.3
20260901211609 86 145 9.0 12.0 0.00 0.00 0.00 34 1005.4
20260901210628 86 137 10.0 12.0 0.00 0.00 0.00 34 1005.5
20260901205650 85 134 10.0 13.0 0.00 0.00 0.00 35 1005.6
20260901204609 84 157 9.0 12.0 0.00 0.00 0.00 36 1005.8
20260901203608 83 131 7.0 9.0 0.00 0.00 0.00 37 1005.9
20260901202609 82 153 9.0 13.0 0.00 0.00 0.00 36 1006.0
20260901201609 82 139 10.0 13.0 0.00 0.00 0.00 36 1006.2
20260901200609 83 155 5.0 8.0 0.00 0.00 0.00 33 1006.2
20260901195609 82 290 5.0 8.0 0.00 0.00 0.00 33 1006.2
20260901194610 80 337 4.0 7.0 0.00 0.00 0.00 37 1006.4
20260901193609 79 6 5.0 7.0 0.00 0.00 0.00 39 1006.5
20260901192610 78 13 3.0 5.0 0.00 0.00 0.00 39 1006.6
20260901191610 77 1 3.0 5.0 0.00 0.00 0.00 41 1006.6
20260901190610 77 34 5.0 7.0 0.00 0.00 0.00 39 1006.7
20260901185610 78 60 5.0 6.0 0.00 0.00 0.00 40 1006.8
20260901184611 78 24 5.0 7.0 0.00 0.00 0.00 39 1006.8
20260901183610 78 45 3.0 3.0 0.00 0.00 0.00 37 1006.9
20260901183112 78 325 5.0 5.0 0.00 0.00 0.00 36 1006.8
20260901182111 77 15 2.0 4.0 0.00 0.00 0.00 38 1007.0
20260901181112 76 337 3.0 4.0 0.00 0.00 0.00 41 1007.1
20260901180112 74 292 3.0 5.0 0.00 0.00 0.00 44 1007.2
20260901175112 73 174 5.0 9.0 0.00 0.00 0.00 44 1007.2
20260901174111 73 90 3.0 6.0 0.00 0.00 0.00 50 1007.4
20260901173111 73 0.0 0.0 0.00 0.00 0.00 49 1007.3
20260901172113 73 0.0 0.0 0.00 0.00 0.00 48 1007.3
20260901171111 72 0.0 0.0 0.00 0.00 0.00 52 1007.2
20260901170133 71 0.0 0.0 0.00 0.00 0.00 55 1007.2
20260901165111 71 0.0 0.0 0.00 0.00 0.00 56 1007.2
20260901164153 70 0.0 0.0 0.00 0.00 0.00 57 1007.3
20260901163133 69 0.0 0.0 0.00 0.00 0.00 59 1007.4
20260901162112 68 0.0 0.0 0.00 0.00 0.00 60 1007.3
20260901161133 66 23 0.0 1.0 0.00 0.00 0.00 64 1007.3
20260901160114 65 0.0 0.0 0.00 0.00 0.00 69 1007.2
20260901155112 64 0.0 0.0 0.00 0.00 0.00 72 1007.2
20260901154114 62 0.0 0.0 0.00 0.00 0.00 75 1007.3
20260901153114 61 35 2.0 3.0 0.00 0.00 0.00 77 1007.2
20260901152132 60 32 0.0 2.0 0.00 0.00 0.00 81 1007.2
20260901151134 59 141 2.0 3.0 0.00 0.00 0.00 82 1007.3
20260901150113 58 29 2.0 3.0 0.00 0.00 0.00 83 1007.2
20260901145113 57 0.0 0.0 0.00 0.00 0.00 84 1007.1
20260901144133 57 135 0.0 2.0 0.00 0.00 0.00 84 1007.1
20260901143113 56 9 1.0 2.0 0.00 0.00 0.00 85 1007.0
20260901142113 56 113 1.0 2.0 0.00 0.00 0.00 85 1007.0
20260901141115 55 23 0.0 1.0 0.00 0.00 0.00 85 1006.9
20260901140113 55 0.0 0.0 0.00 0.00 0.00 84 1006.9
20260901135115 54 141 1.0 2.0 0.00 0.00 0.00 84 1006.8
20260901134115 54 0.0 0.0 0.00 0.00 0.00 83 1006.7
20260901133114 54 0 0.0 2.0 0.00 0.00 0.00 83 1006.7
20260901132114 54 0.0 2.0 0.00 0.00 0.00 82 1006.7
20260901131114 54 0.0 0.0 0.00 0.00 0.00 82 1006.7
20260901130114 54 0.0 0.0 0.00 0.00 0.00 81 1006.6
20260901125116 55 0.0 0.0 0.00 0.00 0.00 81 1006.6
20260901124136 55 0.0 0.0 0.00 0.00 0.00 80 1006.6
20260901123115 55 0.0 0.0 0.00 0.00 0.00 80 1006.6
20260901122116 55 0.0 0.0 0.00 0.00 0.00 79 1006.6
20260901121115 56 0.0 0.0 0.00 0.00 0.00 79 1006.6